Погода Борзя

Погода Борзя : погода сейчас, прогноз погоды и архив. Всё, что Вы хотите узнать о погоде Борзя!

Хотите узнать прогноз погоды Борзя? Тогда Вам сюда: Погода Борзя

Поиск расширенной информации на нашем сайте:

Другие новости

Новости СМИ2

Главная страница сайта

Новости сайта

03.07.2017

Напоминаем, что на нашем специализированном сайте Метеоцентр.Азия вы можете получить высокодетализированные автоматические прогнозы погоды по пунктам России, СНГ и мира в авиационном формате (включающие направление и скорость ветра, видимость, явления погоды, количество и форму облачности, нижнюю и верхнюю границу облачности).


Погода Борзя - сегодня

Время (UTC), дата Ветер
(°,м/с) 
Видим.   Явления Облачность Т
(°С)
Тd
(°С)
f(%) Тe
(°С)
Pmin
(гПа)
dP
(гПа)
Po
(мм)
O2
(г/м3)
Тmin Tmax R s Состояние
почвы
12 09.12.17 350 (С) 4{10}  н/о    8/0 средняя, верхняя 
[Ac lent|Ci sp]
-16.5 -22.4 60 -21  1020.4  3.7  700  302    -8.7  0.2     
15 09.12.17 020 (С) н/о    8/0 верхняя 
[Ci sp]
-23.9 -29.1 62 -29  1026.3  2.9  702  312           
18 09.12.17 350 (С) н/о    3/0 верхняя 
[Ci sp]
-24.3 -29.1 64 -27  1028.5  1.8  704  313           
21 09.12.17 330 (СЗ) н/о    4/0 верхняя 
[Ci sp]
-25.3 -28.9 72 -34  1029.9  0.9  704  314           
00 10.12.17 330 (СЗ) 5{10}  20000 м    9/0 средняя, верхняя 
[Ac lent|Ci sp]
-26.4 -29.9 72 -34  1031.9  1.5  706  316  -27.7      равномерный
сухой снег
100% 
03 10.12.17 330 (СЗ) 6{10}  20000 м    8/0 средняя, верхняя 
[Ac lent|Ci sp]
-24.4 -29.4 63 -32  1032.3  706  314           
06 10.12.17 340 (С) 5{10}  20000 м    4/0 верхняя 
[Ci sp]
-22.6 -29 56 -29  1031.8  0.2  706  312           
09 10.12.17 340 (С) н/о    4/0 средняя, верхняя 
[Ac lent|Ci sp]
-24.8 -30.7 58 -32  1034.6  1.9  708  315           
12 10.12.17 030 (СВ) н/о    4/0 верхняя 
[Ci sp]
-28.1 -32.6 65 -32  1037.9  1.8  709  320    -22.6       
15 10.12.17 тихо ()   н/о    ясно 
-34.4 -38.9 64 -34  1041.1  0.6  710  329           
18 10.12.17 тихо ()   н/о    ясно 
-36.6 -41.2 62 -37  1042.5  0.4  710  332           
21 10.12.17 060 (СВ) н/о    ясно 
-37.9 -42.7 60 -39  1044.1  711  334           
00 11.12.17 070 (В) 20000 м  дым  3/0 верхняя 
[Ci fib]
-38.6 -43.4 61 -40  1045.4  0.9  711  336  -39      равномерный
сухой снег
100% 
03 11.12.17 330 (СЗ) 20000 м    3/0 верхняя 
[Ci fib]
-25.1 -31.9 53 -30  1040.5  0.5  712  318           
06 11.12.17 330 (СЗ) 8-11{11}  20000 м    3/0 верхняя 
[Ci fib]
-22.9 -30.3 51 -32  1038.3  -1.3  711  314           
09 11.12.17 330 (СЗ) 6{11}  н/о    3/0 верхняя 
[Ci fib]
-25.5 -32.3 53 -34  1039.7  0.4  711  318           
12 11.12.17 050 (СВ) н/о    8/0 верхняя 
[Ci sp]
-27.6 -33.7 56 -28  1041.2  0.6  712  321    -22.7       
15 11.12.17 210 (ЮЗ) н/о    3/0 верхняя 
[Ci sp]
-30.2 -34.8 64 -34  1042.5  0.2  712  324           
18 11.12.17 060 (СВ) н/о    ясно 
-37.8 -42.6 61 -39  1045.3  -0.4  711  335           
21 11.12.17 090 (В) н/о    ясно 
-37.5 -42.1 62 -39  1045.1  711  334           
00 12.12.17 070 (В) 20000 м    ясно 
-36.9 -41.6 62 -38  1045.2  0.3  712  333  -38.6      равномерный
сухой снег
100% 
03 12.12.17 тихо ()   20000 м    ясно 
-28 -32.4 66 -28  1042.2  0.6  712  321           
06 12.12.17 330 (СЗ) 20000 м    ясно 
-23.1 -31 48 -26  1039.6  -0.6  712  315           
09 12.12.17 190 (Ю) н/о    ясно 
-27 -32.3 61 -30  1041.4  0.3  712  320           
12 12.12.17 070 (В) н/о    ясно 
-35.6 -40.1 63 -37  1046.2  1.3  713  332    -22.7       
Время (UTC), дата Ветер
(°,м/с) 
Видим.   Явления Облачность Т
(°С)
Тd
(°С)
f(%) Тe
(°С)
Pmin
(гПа)
dP
(гПа)
Po
(мм)
O2
(г/м3)
Тmin Tmax R s Состояние
почвы

Для получения пояснительной информации подведите курсор к названию столбца.

ПОГОДА Борзя - архив

Всё, что Вы хотите узнать о погоде Борзя - удобно и подробно!

Выберите нужную дату (начиная с 1 января 2015* года) и нажмите кнопку "Найти".
Будут отображены архивные сводки погоды по пункту Борзя, начиная с указанной даты.


Отображать данные в формате CSV (для использования в таблицах Excel)


Внимание! Наш архив погоды предназначен исключительно для личного некоммерческого использования в познавательных целях. Если Вам необходимы официальные справки о состоянии погоды (для производственных, юридических, коммерческих и т.п. целей), обращайтесь в органы Росгидромета.

*Примечание: данная дата относится к архиву по метеостанциям СССР (Россия, СНГ, Балтия).
Архив по метеостанциям Зарубежной Европы и Азии (кроме Китая) хранится 10 дней, по другим регионам земного шара (Китай, Африка, Америка, Австралия, Океания) - 1 день.

Борзя - район местоположения метеостанции


Название, широта, долгота, высота метеостанции:
Борзя 50.4°ш. 116.5°д. 676 м над ур. моря [Российская Федерация]

Дополнительная информация

В oтличие oт бoльшинства пoгoдных сайтoв мы публикуем пoдрoбную метеoинфoрмацию в детальнoм прoфессиoнальнoм фoрмате.

Характеристики температуры и влажнoсти вoздуха измеряются на высoте 2 м в тени вдали oт зданий и деревьев.
Скoрoсть ветра измеряется на высoте 10 м (на урoвне рoста челoвека скoрoсть ветра ниже в 1.5-2 раза). Если метеoстанция нахoдится в гoрoде или в лесу, тo скoрoсть ветра занижена на 2-4 м/с пo сравнению с oткрытым местoм. Скoрoсть ветра над акватoриями крупных рек и oзёр, а также на вершинах хoлмoв на 2-5 м/с выше, чем в oбычных услoвиях.
Атмoсфернoе давление в разных тoчках местнoсти мoжет значительнo oтличаться oт давления на метеoстанции, в зависимoсти oт услoвий рельефа (при пoдъёме на 10 м давление пoнижается примернo на 1 мм рт.ст.).